Weather Roundup
Issued by NWS

Home | Current Version | Previous Version | Text Only | Print | Product List | Glossary On
Versions: 1 2 3 4 5 6 7 8 9 10 11 12 13 14 15 16 17 18 19 20 21 22 23 24 25 26 27 28 29 30 31 32 33 34 35 36 37 38 39 40 41 42 43 44 45 46 47 48 49 50
000
NZUS93 KARX 251310
HRRWXR

CURRENT HOURLY OBSERVATIONS ACROSS
MUCH OF THE UPPER MISSISSIPPI VALLEY
NATIONAL WEATHER SERVICE LA CROSSE WI
800 AM CDT MON SEP 25 2017


...SOUTHEAST MINNESOTA...


CITY           SKY/WX    TMP DP  RH WIND       PRES   REMARKS
ROCHESTER      MOCLDY    67  65  93 N8        29.98F FOG
ROCHESTER/MAYO CLOUDY    67  67 100 N3        29.98S
WINONA         PTSUNNY   64  63  94 CALM      29.96R
AUSTIN         CLOUDY    66  63  88 NW8       29.98S FOG
ALBERT LEA     CLOUDY    64  63  94 NW5       29.99S FOG
DODGE CENTER   FOG       64  63  94 NW6       29.99R VSB 1/4
PRESTON        PTCLDY    62  59  92 NW7       29.99R FOG
OWATONNA       FOG       61  61 100 NW8       30.00R VSB<1/4
FARIBAULT      CLOUDY    61  59  94 N5        29.99S
$$

...ELSEWHERE IN MINNESOTA...


CITY           SKY/WX    TMP DP  RH WIND       PRES   REMARKS
MINNEAPOLIS    CLOUDY    60  59  96 NW6       29.99S
INTNL FALLS    CLOUDY    50  48  93 NW8       30.03R
DULUTH         CLOUDY    53  52  96 NW9       29.99R
RED WING       CLOUDY    70  64  83 CALM      29.96R
REDWOOD FALLS  LGT RAIN  52  50  93 NW9       30.04R
MANKATO        LGT RAIN  56  55  97 NW9       30.02R
WORTHINGTON    LGT RAIN  52  51  97 N12G17    30.02F FOG
FAIRMONT       LGT RAIN  54  53  97 N9        30.01S
$$

...SOUTHWEST WISCONSIN...


CITY           SKY/WX    TMP DP  RH WIND       PRES   REMARKS
LA CROSSE      MOSUNNY   70  64  81 SE5       29.95R
PRAIRIE DU CHI SUNNY     65  62  90 CALM      29.97S
BOSCOBEL       SUNNY     64  62  93 CALM      29.98R FOG
LONE ROCK      SUNNY     63  62  97 CALM      29.98S FOG
PLATTEVILLE    SUNNY     67  63  86 SE6       30.00S
FORT MC COY    MOSUNNY   61  59  94 CALM      29.97S
CAMP DOUGLAS   MOSUNNY   63  63 100 CALM      29.97S
MAUSTON-NEW LI SUNNY     68  62  81 SE5       29.97S
VIROQUA        FAIR      65  64  97 CALM      29.98S
WIS DELLS      SUNNY     68  60  75 S3        29.99S
$$

...ELSEWHERE IN WISCONSIN...


CITY           SKY/WX    TMP DP  RH WIND       PRES   REMARKS
MILWAUKEE      MOSUNNY   73  61  65 SW8       30.01R
MADISON        MOSUNNY   68  62  81 S5        29.99S
GREEN BAY      MOSUNNY   66  63  90 CALM      29.99S
EAU CLAIRE     MOSUNNY   64  63  96 CALM      29.96R FOG
BLACK RVR FLS  FAIR      60  60 100 CALM      29.96S FOG
MEDFORD        SUNNY     61  60  95 CALM      29.99S FOG
WAUSAU         SUNNY     64  61  90 CALM      29.98R
WIS RAPIDS     SUNNY     69  62  78 CALM      29.99S
MARSHFIELD     SUNNY     65  61  87 CALM      29.99R
RICE LAKE      MOCLDY    65  64  96 CALM      29.99S
$$

...NORTHEAST IOWA...


CITY           SKY/WX    TMP DP  RH WIND       PRES   REMARKS
WATERLOO       MOSUNNY   67  62  84 CALM      29.95S
DUBUQUE        SUNNY     67  61  81 S3        29.99S
DECORAH        MOSUNNY   66  63  88 SE3       29.96S
MASON CITY     FOG       63  63 100 N10       29.98F VSB 1
CHARLES CITY   PTCLDY    64  64 100 CALM      29.97R
OELWEIN        MOSUNNY   66  64  94 SE5       29.98S
$$

...ELSEWHERE IN IOWA...


CITY           SKY/WX    TMP DP  RH WIND       PRES   REMARKS
DES MOINES     MOCLDY    68  64  87 S3        29.94R
IOWA CITY      NOT AVBL
FORT DODGE     CLOUDY    63  63 100 NE9       29.97R FOG
MARSHALLTOWN   PTCLDY    65  63  93 E7        29.94F FOG
CEDAR RAPIDS   MOSUNNY   66  63  90 SE5       29.96S
$$

...NORTHERN ILLINOIS...


CITY           SKY/WX    TMP DP  RH WIND       PRES   REMARKS
CHICAGO-OHARE  MOSUNNY   72  58  61 SW5       30.01S
CHICAGO-MIDWAY MOSUNNY   74  58  57 S5        30.02R
MOLINE         SUNNY     69  62  78 E3        29.98R
ROCKFORD       MOSUNNY   66  60  81 S3        30.02R
PEORIA         SUNNY     69  63  81 CALM      30.01S
$$

NOTE: "FAIR" INDICATES FEW OR NO CLOUDS BELOW 12,000 FEET WITH NO
SIGNIFICANT WEATHER AND/OR OBSTRUCTIONS TO VISIBILITY. WIND
SPEEDS ARE IN MILES-PER-HOUR.




USA.gov is the U.S. government's official web portal to all federal, state and local government web resources and services.